CAPE
0 16 773 1021 1174 1124 1263 1622 1450 1370 1439 1541 1445 1598 1868 1498 1346 1288 1544 2077 2053 2058 1963 2112 2148 2177 2275 2277 2228 2185 1942 2042 1718 1626 1406 1230 1277 1414 1255 1274 1178 1184 1097
0 171 1057 1235 1269 1242 1576 1924 1588 1610 1634 1403 1515 2018 1782 1476 1558 1288 1249 1266 2025 1941 1909 2015 2071 2157 2325 2294 1978 1928 1741 1923 1876 1746 1579 1502 1428 1304 1140 947 1411 1298 1138
0 731 1118 1268 1124 1469 1957 1950 1720 1950 1667 1534 1919 2047 1566 1985 1789 946 1124 1392 1138 1575 1676 1600 1777 2009 2171 2297 1771 1515 1281 1323 1803 1763 1622 1390 1431 1321 921 1286 662 651 658
183 836 1073 1037 1188 1704 1899 1902 1905 1801 1659 1684 2001 1923 1674 1744 1753 1103 930 933 1555 1251 1501 1347 1760 1931 2101 1742 1179 1175 1067 957 1626 1453 914 1007 871 967 1467 964 1311 1157 1508
358 656 748 1171 1238 1002 1399 1841 1960 1793 1604 1968 1968 1465 1852 1717 1704 1412 817 1129 1576 1446 1526 1696 1657 1550 1589 1290 943 978 1012 1158 1385 822 908 1114 1251 1394 1489 890 570 1143 1209
325 451 1045 1142 1353 1799 1866 1757 1782 1801 1897 1925 1937 1361 1728 1699 1822 1647 1527 1073 1378 1502 1278 1162 1502 1334 993 985 920 1099 1115 1478 1180 1128 1201 1296 1502 1079 1504 719 1125 694 714
279 894 1604 1726 1980 1988 1936 1949 1697 1707 1748 1828 1560 1752 1881 1732 1608 1579 1490 1439 1270 1295 1362 1178 1149 1166 577 939 1303 1436 1106 1365 1107 981 1177 1469 1166 757 697 1192 1322 1246 684
264 1055 1472 1723 1769 1773 1643 1635 1651 1699 1785 1857 1772 1839 1626 1647 1486 1670 1523 1546 1377 1378 1398 1284 1269 873 511 855 1089 1347 1562 1468 893 887 1165 1303 715 569 453 692 246 72 121
831 941 1241 1430 1715 1675 1570 1645 1639 1705 1775 1927 1864 1804 1712 1547 1424 1370 1509 1480 1411 1390 1363 1243 1022 839 957 923 1168 1489 1560 1100 735 1046 1377 1225 678 828 813 345 698 997 643
657 769 866 1173 962 782 1046 1482 1745 1749 1882 1856 1840 1679 1778 1676 1623 1482 1373 1454 1417 1265 1332 1378 1079 1000 728 970 934 1274 1609 1183 879 1277 1324 1312 870 1556 1636 1429 1316 1034 1077
316 622 680 624 506 1152 1394 1326 1685 1801 1690 1605 1573 1393 1144 1342 1178 1225 1365 1320 1331 1254 1258 1286 1275 993 732 722 1049 1174 1347 1032 950 1141 1210 1193 1451 1209 1391 1376 1156 1036 899
109 320 245 269 468 890 1172 1327 1343 1525 1346 1283 1085 831 552 962 1123 1120 1363 1305 1320 1260 1238 701 720 618 22 372 653 1217 905 805 818 990 1339 1418 1443 1385 1614 1176 1247 889 335
3 162 32 298 533 550 660 874 965 905 786 640 271 0 311 642 870 734 838 1019 1182 1248 921 202 40 137 67 398 855 961 714 654 934 1037 1434 1439 1476 1302 1282 1318 911 742 1027
27 86 116 282 450 411 191 445 565 644 720 705 400 245 706 136 129 188 251 264 512 673 354 0 39 421 576 768 915 919 708 548 572 719 1430 1144 1281 1319 1183 1171 1206 837 725
21 86 115 277 481 306 121 531 684 680 761 801 666 669 263 284 110 296 253 48 441 400 279 293 448 601 783 885 898 671 643 491 352 795 675 749 1147 1256 1078 870 1029 1120 635
0 0 99 247 372 236 433 585 638 735 954 758 429 168 395 259 216 28 317 263 368 62 36 471 465 626 796 827 661 570 597 224 133 237 510 742 817 930 1051 538 511 750 647
0 63 126 189 293 284 616 813 775 659 799 656 320 134 456 602 260 0 143 317 182 0 73 290 378 672 638 602 437 534 585 355 168 72 162 313 498 637 648 329 160 175 168
106 52 106 149 295 502 657 644 553 581 827 597 655 513 142 526 540 447 304 159 219 0 199 359 398 366 190 293 396 463 500 434 400 126 227 260 247 239 367 346 258 317 533
109 115 186 275 253 453 435 338 728 806 848 754 713 414 16 820 1267 822 604 357 409 134 160 443 529 311 96 156 237 388 562 269 201 234 320 220 289 297 355 478 569 453 741
100 106 201 300 129 377 245 375 668 658 769 863 655 640 816 1165 1167 1293 893 809 950 642 752 449 116 301 251 325 306 138 409 267 110 230 315 436 404 423 399 383 483 432 542
52 25 70 32 56 295 175 131 579 404 667 687 461 860 1227 1131 1281 1066 994 828 522 640 778 728 242 235 600 113 10 142 71 59 135 150 360 437 501 517 577 381 342 407 410
0 0 37 17 0 114 107 35 390 393 546 343 660 824 1174 1196 1045 1106 893 500 369 321 633 549 438 334 424 149 162 152 13 0 0 100 124 138 333 573 588 597 495 317 395
0 0 12 14 2 6 103 18 329 596 477 332 684 1082 1223 1351 889 747 967 948 827 628 610 479 468 431 39 80 104 258 18 1 0 34 44 83 94 79 370 669 613 476 508
0 0 63 62 51 43 26 0 317 497 196 557 406 921 1154 1318 868 738 952 989 1024 902 484 723 844 565 162 112 187 2 206 264 76 46 99 44 172 94 281 494 500 557 614
7 22 110 73 106 100 12 0 140 258 169 383 670 776 773 1259 1024 968 771 855 733 866 678 785 1074 916 752 662 171 0 7 182 131 167 281 398 330 314 93 241 301 388 476
0 27 125 86 84 135 44 0 4 96 198 377 583 760 901 863 1031 964 932 870 834 893 761 764 1062 968 1045 1109 1003 186 92 389 264 297 278 383 497 445 457 349 297 294 464
CIN
0 -38 -15 -10 -18 -30 -26 -8 -13 -9 -14 -11 -14 -1 0 -11 -27 -24 -6 0 0 0 -1 0 0 0 0 -1 0 0 0 0 -4 -1 -1 0 0 0 -1 0 0 0 0
0 -66 0 -9 -17 -27 -6 0 -4 -6 -8 -13 -5 0 0 -1 0 0 0 -2 0 0 0 0 0 0 0 0 -4 -1 -3 -1 -1 0 0 0 0 0 0 0 0 0 0
0 -13 -7 -14 -23 -5 0 0 -1 0 0 -1 0 0 0 0 0 -15 -3 0 -4 0 0 0 0 0 0 0 -6 -6 -15 -7 0 0 -1 -2 -1 0 -2 0 -15 -13 -5
-92 -21 -19 -23 -9 0 0 0 0 0 -1 -3 0 0 0 0 0 -3 -10 -2 0 0 0 0 0 0 0 -3 -8 -5 -6 -11 0 -4 -18 -8 -4 -1 0 0 0 0 0
-66 -39 -36 -8 -9 -35 -5 0 0 0 0 0 0 -3 0 0 0 0 -14 0 0 0 0 0 0 0 -1 -6 -15 -10 -7 -10 -1 -35 -28 -9 -1 0 0 0 -5 0 0
-75 -52 -16 -15 -9 0 0 0 -1 0 0 0 0 -7 0 0 0 0 0 0 0 0 0 -4 -1 -8 -22 -19 -20 -9 -16 -8 -20 -27 -22 -7 -1 0 0 -4 0 -3 -3
-79 -18 0 0 0 0 0 0 -1 0 0 0 -1 0 0 0 0 0 0 0 -1 -2 -1 -6 -3 -17 -32 -26 -22 -16 -20 -16 -48 -42 -21 -2 -2 -13 -11 0 0 0 -12
-95 -4 -1 0 -1 0 0 0 0 0 0 -1 -1 -1 -1 0 0 0 0 0 0 -1 -3 -12 -13 -28 -31 -26 -27 -21 -9 -22 -52 -47 -21 -6 -32 -38 -47 -11 -65 -117 -87
-30 -11 -2 0 0 0 0 0 0 0 0 0 0 0 0 0 0 0 0 0 -1 -2 -3 -13 -25 -33 -28 -25 -16 -11 -11 -40 -66 -43 -12 -9 -35 -16 -9 -50 -9 0 -2
-43 -32 -30 -2 -16 -47 -16 0 0 0 0 0 0 0 0 0 0 0 -2 -1 -3 -8 -7 -9 -28 -32 -31 -24 -23 -16 -18 -43 -60 -28 -20 -11 -29 0 0 0 0 -2 0
-57 -46 -51 -46 -72 -25 -5 -7 0 0 0 0 -3 -11 -17 -12 -13 -14 -15 -18 -11 -17 -23 -27 -27 -31 -36 -33 -34 -15 -35 -55 -54 -43 -37 -19 -3 0 0 -2 -2 -1 -1
-88 -72 -108 -100 -76 -44 -21 -11 -15 -8 -15 -27 -27 -40 -57 -35 -12 -14 -14 -14 -20 -28 -35 -61 -50 -55 -87 -70 -57 -46 -58 -66 -65 -57 -28 -8 -1 0 0 -3 -2 -9 -60
-8 -99 -191 -102 -69 -81 -74 -52 -55 -52 -56 -75 -103 -2 -82 -57 -35 -43 -49 -44 -27 -30 -68 -119 -134 -135 -120 -77 -65 -69 -75 -86 -65 -57 -21 -9 -2 -6 -1 0 -11 -21 -1
-60 -77 -123 -92 -81 -86 -116 -102 -84 -85 -74 -73 -75 -83 -53 -49 -162 -168 -131 -128 -81 -70 -91 0 -150 -95 -79 -81 -62 -70 -88 -101 -114 -98 -27 -37 -24 -16 -20 -8 -5 -25 -29
-66 -96 -114 -85 -71 -90 -103 -84 -73 -77 -77 -80 -72 -57 -74 -126 -171 -152 -148 -153 -99 -108 -99 -105 -92 -69 -72 -63 -61 -91 -68 -88 -127 -100 -96 -71 -41 -36 -41 -45 -26 -13 -48
0 0 -101 -87 -78 -77 -54 -64 -61 -65 -55 -68 -83 -104 -78 -99 -111 -68 -124 -124 -104 -153 -163 -90 -73 -66 -67 -66 -63 -73 -60 -107 -155 -125 -119 -106 -92 -76 -54 -97 -86 -46 -49
0 -108 -94 -82 -77 -48 -50 -49 -48 -48 -46 -55 -78 -126 -86 -83 -72 0 -153 -148 -101 0 -154 -94 -107 -78 -74 -59 -77 -65 -57 -72 -103 -171 -167 -151 -125 -112 -108 -153 -188 -180 -188
-122 -128 -71 -62 -50 -28 -37 -54 -51 -40 -43 -43 -59 -73 -94 -66 -52 -70 -93 -107 -127 0 -104 -103 -86 -70 -83 -88 -79 -51 -52 -68 -85 -133 -148 -165 -184 -188 -159 -167 -184 -172 -121
-116 -90 -61 -63 -57 -26 -36 -58 -23 -30 -46 -37 -41 -63 -71 -35 -22 -40 -51 -65 -89 -100 -109 -87 -88 -139 -133 -86 -74 -33 -56 -78 -94 -100 -111 -155 -169 -178 -177 -163 -144 -170 -129
-109 -86 -60 -63 -67 -36 -37 -45 -33 -38 -40 -46 -50 -49 -40 -29 -15 -24 -37 -45 -58 -60 -54 -72 -141 -95 -80 -59 -55 -73 -43 -73 -124 -102 -97 -124 -156 -162 -182 -200 -199 -212 -208
-113 -111 -78 -86 -86 -53 -36 -58 -36 -39 -40 -48 -61 -40 -32 -39 -26 -24 -29 -29 -49 -43 -39 -43 -69 -82 -36 -127 -183 -90 -134 -139 -115 -130 -104 -117 -137 -149 -169 -217 -226 -246 -267
0 0 -97 -100 0 -80 -74 -112 -42 -53 -47 -55 -49 -38 -29 -26 -24 -25 -27 -31 -41 -43 -34 -34 -41 -38 -56 -129 -116 -113 -80 0 0 -150 -173 -187 -144 -149 -166 -191 -235 -295 -299
0 0 -75 -52 -32 -118 -81 -146 -44 -47 -62 -60 -41 -28 -30 -22 -35 -36 -28 -32 -29 -33 -30 -54 -49 -32 -97 -115 -151 -85 -168 -19 0 -199 -191 -200 -225 -262 -204 -208 -226 -270 -272
0 0 -174 -131 -120 -109 -144 0 -57 -46 -102 -48 -66 -35 -24 -23 -32 -37 -32 -40 -30 -32 -39 -35 -45 -44 -74 -63 -95 -47 -118 -97 -134 -145 -189 -226 -215 -239 -213 -223 -221 -236 -246
-111 -215 -184 -152 -134 -106 -183 0 -98 -70 -98 -67 -45 -30 -34 -25 -25 -27 -28 -34 -51 -41 -52 -37 -38 -39 -49 -41 -82 0 -94 -141 -182 -138 -123 -129 -176 -178 -240 -238 -244 -245 -243
0 -156 -197 -185 -164 -126 -146 0 -87 -132 -104 -87 -62 -49 -35 -41 -37 -37 -32 -42 -50 -40 -43 -43 -41 -41 -30 -41 -60 -119 -92 -85 -128 -133 -153 -154 -156 -172 -202 -240 -267 -261 -234
Wind_Speed
35 35 31 30 29 29 29 28 27 25 23 23 24 24 23 23 22 20 21 25 26 26 11 8 4 2 1 4 11 15 10 20 27 32 31 31 31 31 30 31 31 31 30
37 35 33 31 30 27 28 27 27 25 24 25 25 25 25 24 22 21 22 23 25 26 15 5 4 4 5 4 4 8 23 31 32 32 31 30 30 30 31 31 31 30 30
35 34 33 32 30 29 28 27 26 25 25 25 26 26 25 24 22 20 18 18 20 24 25 20 9 7 8 12 15 13 17 28 31 30 30 30 30 30 31 31 30 29 30
33 33 32 31 29 28 28 28 27 26 26 26 26 26 26 25 22 21 19 16 15 24 23 25 2 5 10 13 20 24 26 28 30 30 29 29 29 29 30 30 30 31 30
31 31 31 30 28 27 28 27 27 26 27 27 27 27 27 26 24 20 18 15 14 25 21 24 21 2 11 13 19 19 18 28 29 29 29 30 30 29 30 30 31 31 31
30 30 30 30 28 27 28 28 27 28 28 28 28 28 28 28 29 27 1 10 16 29 28 27 26 11 14 24 23 19 24 29 29 28 28 29 27 29 29 30 30 30 29
30 30 30 30 28 27 28 28 28 29 28 28 28 28 28 29 30 30 28 26 26 26 27 29 16 20 25 23 15 22 29 27 26 26 28 29 28 28 28 28 28 28 28
29 30 28 28 27 28 29 29 29 29 28 28 28 28 29 29 29 29 29 29 28 26 26 27 27 29 26 13 12 27 26 25 25 26 27 27 27 27 27 27 26 26 27
27 28 27 28 27 27 30 30 29 28 28 27 27 28 28 28 28 27 25 24 26 25 23 22 23 24 20 13 2 20 24 24 25 25 27 25 26 26 26 26 26 26 26
25 27 28 28 28 29 29 30 28 28 27 27 27 27 28 28 28 28 26 25 23 23 21 20 22 20 18 10 6 13 26 24 23 23 25 25 25 26 26 26 25 25 25
25 28 29 28 29 29 29 29 28 28 27 27 26 28 28 27 28 27 27 26 24 22 21 21 19 19 19 1 5 9 22 25 24 24 24 25 25 26 26 26 25 25 24
27 30 30 29 29 28 29 29 28 28 28 27 28 27 25 25 24 26 26 24 23 23 22 18 20 19 15 14 13 14 24 24 24 25 25 26 25 25 25 24 24 22 22
28 29 31 30 29 29 29 29 29 29 29 28 28 26 24 25 25 25 23 24 22 21 18 18 18 17 14 18 15 21 25 25 25 23 24 25 25 25 24 22 21 22 22
28 29 31 32 30 30 30 29 28 28 28 27 27 25 25 22 24 21 17 20 20 23 20 18 18 18 18 16 16 20 24 25 24 24 24 24 24 23 22 22 22 21 21
28 29 31 32 31 30 31 28 27 27 27 26 25 25 25 23 22 22 23 22 24 23 22 22 21 20 17 15 15 25 27 25 25 24 23 23 23 22 22 22 22 21 20
28 30 31 31 31 30 30 28 27 27 26 25 25 24 24 24 23 23 24 24 23 22 23 23 21 20 19 18 16 27 26 25 25 24 23 23 22 22 21 21 20 20 20
29 29 31 29 30 28 26 27 26 26 26 26 24 24 24 24 24 24 23 24 26 25 25 23 22 21 19 19 18 27 25 25 24 24 24 22 22 21 20 20 20 20 19
23 28 29 28 28 28 25 27 27 25 25 25 25 23 24 25 24 24 25 24 26 27 26 23 22 21 20 22 23 24 24 24 24 24 22 21 21 20 19 20 20 20 19
22 23 27 25 28 28 26 27 26 24 24 23 24 24 25 26 25 25 25 25 26 27 26 24 24 24 23 22 22 23 23 23 23 22 22 22 21 20 20 20 20 19 18
23 23 25 23 26 27 29 28 26 24 25 25 25 25 25 25 25 25 26 25 26 26 24 26 24 23 22 22 19 20 22 23 22 22 21 21 21 20 20 19 19 18 18
24 23 25 26 27 27 30 30 27 26 27 26 25 25 25 25 25 27 27 25 26 27 25 26 23 22 20 22 20 21 20 21 21 22 22 21 21 20 20 19 18 18 17
25 26 24 25 27 29 28 32 29 28 28 26 26 25 24 25 24 24 26 25 25 26 27 26 24 22 22 22 21 20 21 19 19 21 22 22 21 21 20 20 19 18 16
26 24 25 25 28 29 30 34 30 28 26 28 27 26 24 24 23 24 24 24 25 26 25 25 24 23 23 20 19 20 20 21 18 18 20 20 22 21 20 21 19 18 16
26 23 22 25 28 30 30 33 33 32 31 29 27 26 25 23 22 22 23 22 24 24 25 25 24 21 22 20 19 19 19 20 20 21 17 19 20 19 20 20 19 17 15
24 23 20 22 27 33 31 33 33 33 32 29 28 26 24 23 23 22 22 22 22 23 24 25 24 24 22 20 20 19 19 18 18 19 21 18 19 19 19 19 18 16 14
23 20 19 22 25 31 33 34 35 35 34 31 26 26 24 22 23 22 22 22 22 22 23 24 24 24 23 21 19 19 19 18 17 19 20 17 17 15 17 17 16 14 13
Wind_Direction
145 144 157 158 153 146 134 110 100 82 71 69 70 73 69 68 65 58 64 112 109 122 184 16 229 289 350 20 37 47 42 58 71 96 102 96 92 89 77 81 81 90 79
134 138 151 153 149 151 138 115 105 87 78 79 79 78 74 74 69 65 67 79 92 102 183 239 252 243 218 205 191 176 146 115 99 91 88 82 89 86 90 89 86 77 76
128 135 144 138 131 137 113 110 106 93 88 87 91 85 78 77 67 57 54 56 68 94 103 166 219 222 209 187 173 172 158 126 106 92 89 99 93 84 93 88 81 77 77
125 130 130 125 114 106 107 108 107 101 103 102 94 94 90 80 69 62 58 48 45 86 85 101 96 230 203 188 163 147 134 129 103 97 101 98 90 85 92 91 81 86 82
121 122 122 121 114 110 114 113 112 108 113 111 108 102 98 89 81 64 53 47 40 85 66 88 82 241 195 184 167 159 159 125 105 98 87 101 105 99 98 99 97 96 93
119 119 118 120 115 112 118 123 122 119 121 116 106 106 98 99 100 88 331 183 170 104 103 95 94 194 186 159 154 164 139 100 98 97 103 110 120 104 97 95 97 87 95
117 118 119 121 116 108 118 120 120 123 119 114 107 106 105 102 106 111 132 135 135 129 125 111 179 174 162 157 175 126 109 103 90 83 94 106 106 106 100 90 92 85 92
116 121 114 115 113 115 117 119 121 120 111 110 108 106 106 99 108 117 121 121 126 132 135 132 147 143 154 180 182 97 89 83 86 85 94 89 90 95 94 93 87 85 86
115 116 116 121 112 113 123 124 121 111 108 100 105 106 106 105 109 127 137 144 137 139 144 152 157 160 169 183 262 66 82 80 83 82 96 90 92 91 90 91 94 91 91
114 118 121 123 122 126 130 127 113 110 103 104 103 106 106 109 105 115 136 141 147 147 150 154 159 170 175 193 206 42 91 79 71 82 94 95 93 103 100 94 103 92 100
117 125 129 124 128 129 127 123 114 112 110 109 105 115 112 111 112 106 125 135 146 155 155 155 167 172 169 300 241 174 76 90 83 88 94 102 102 108 113 104 113 110 118
126 135 136 133 132 127 132 125 117 118 117 122 137 136 127 125 141 107 134 147 159 151 154 171 169 171 184 187 194 187 98 99 95 114 124 117 125 128 125 125 126 134 135
132 135 143 139 135 134 132 126 122 121 127 129 116 109 109 111 122 111 95 147 165 168 177 173 176 181 193 166 178 151 121 115 123 136 139 136 136 131 134 145 145 133 130
133 134 141 144 138 143 133 126 124 123 128 130 123 132 123 96 107 91 86 182 182 168 173 181 188 184 179 175 173 157 136 127 136 140 142 134 136 138 145 140 139 139 138
134 136 143 147 143 142 140 130 127 130 135 133 127 126 125 118 108 130 130 153 167 172 175 172 176 179 183 184 175 138 129 129 135 138 143 142 146 145 143 143 140 141 140
140 142 146 146 144 141 145 139 136 140 145 131 124 122 123 124 127 139 138 158 176 181 182 175 181 182 175 178 177 133 135 134 135 139 145 145 147 149 147 147 147 144 141
146 145 150 146 150 145 158 158 149 147 150 143 125 126 122 121 133 136 145 147 164 160 166 170 174 172 175 175 172 137 140 142 143 143 144 148 149 149 150 153 150 146 143
138 146 149 147 147 152 145 144 150 145 141 133 136 139 135 124 136 141 141 144 151 161 158 163 171 173 170 163 161 152 150 148 149 148 151 153 152 149 152 155 151 146 143
137 142 147 143 149 148 131 129 127 127 124 127 138 138 136 132 133 137 142 142 147 155 164 161 159 159 161 161 162 158 158 154 151 157 156 152 150 151 152 153 151 149 148
143 145 147 143 149 148 156 161 153 126 128 135 135 137 135 140 134 130 136 140 145 152 163 160 166 160 160 158 170 172 172 169 165 165 162 158 155 152 153 148 152 155 159
150 150 153 154 158 154 162 166 155 142 147 145 145 141 143 141 133 129 139 145 140 139 149 153 163 169 173 161 166 171 177 176 173 171 169 163 162 159 158 159 159 161 164
158 158 156 157 157 163 162 176 179 160 161 153 147 148 148 143 134 126 134 137 147 148 137 146 157 162 164 163 169 172 165 172 174 171 174 173 173 169 168 168 167 164 163
164 162 161 161 162 165 167 176 191 189 201 177 159 156 153 145 133 129 135 129 135 149 154 159 166 166 169 174 177 176 173 162 174 182 171 178 175 171 173 172 170 170 166
168 165 164 163 165 168 166 171 177 181 182 179 161 158 151 143 134 129 133 134 136 140 147 156 165 183 182 186 189 190 183 175 171 160 189 180 173 176 173 171 170 170 167
172 169 169 166 167 174 169 173 178 188 193 181 165 155 150 145 142 133 134 130 132 135 142 150 164 166 184 192 192 192 191 190 187 170 158 172 178 178 174 170 167 170 172
177 178 176 170 170 173 176 179 181 187 194 186 160 156 153 144 146 144 138 135 131 135 141 153 159 164 176 194 205 201 199 200 192 179 163 170 167 174 176 175 177 179 183